Weather History for Columbus AFB, MS

Change the Weather History Date:

Wednesday, May 13, 2009

  Actual Average Record
Temperature  
Mean Temperature 72 °F -  
Max Temperature 79 °F 80 °F 91 °F (1998)
Min Temperature 64 °F 58 °F 41 °F (2013)
Cooling Degree Days 7    
Growing Degree Days 22 (Base 50)    
Moisture  
Dew Point 66 °F    
Average Humidity 88    
Maximum Humidity 100    
Minimum Humidity 70    
Precipitation  
Precipitation 0.42 in - - ()
Sea Level Pressure  
Sea Level Pressure 30.06 in    
Wind  
Wind Speed 9 mph (SE)    
Max Wind Speed 20 mph    
Max Gust Speed 22 mph    
Visibility 9 miles    
Events Rain , Thunderstorm    
Averages and records for this station are not official NWS values.
T = Trace of Precipitation, MM = Missing Value Source: NWS Daily Summary

Daily Weather History Graph

Daily Weather History Graph

Search for Another Location

Airport:

Trip Planner

Search our weather history database for the weather conditions in past years. The results will help you decide how hot, cold, wet, or windy it might be!

Date:

Astronomy

May. 13, 2009 Rise Set
Actual Time 5:54 AM CDT 7:46 PM CDT
Civil Twilight 5:27 AM CDT 8:13 PM CDT
Nautical Twilight 4:53 AM CDT 8:46 PM CDT
Astronomical Twilight 4:18 AM CDT 9:22 PM CDT
Moon 11:57 PM CDT (5/13) 9:11 AM CDT (5/13)
Length of Visible Light 14h 46m
Length of Day
13h 51m
Waning Gibbous, 82% of the Moon is Illuminated
May 13
Waning Gibbous
May 17
Last Quarter
May 24
New
May 30
First Quarter
Jun 7
Full

Hourly Weather History & Observations

Time (CDT) Temp. Heat Index Dew Point Humidity Pressure Visibility Wind Dir Wind Speed Gust Speed Precip Events Conditions
12:01 AM 64.4 °F - 62.6 °F 94% 30.07 in 10.0 mi SE 6.9 mph - N/A   Mostly Cloudy
12:55 AM 64.0 °F - 63.5 °F 98% 30.05 in 10.0 mi Calm Calm - N/A   Overcast
1:31 AM 64.4 °F - 64.4 °F 100% 30.04 in 10.0 mi ESE 6.9 mph - N/A Rain Light Rain
1:39 AM 64.4 °F - 64.4 °F 100% 30.04 in 10.0 mi SSE 9.2 mph - N/A Rain Light Rain
1:47 AM 64.4 °F - 62.6 °F 94% 30.06 in 10.0 mi SSW 5.8 mph - N/A Rain , Thunderstorm Light Thunderstorms and Rain
1:48 AM 64.4 °F - 62.6 °F 94% 30.06 in 10.0 mi Variable 4.6 mph - N/A Rain , Thunderstorm Light Thunderstorms and Rain
1:53 AM 64.4 °F - 64.4 °F 100% 30.08 in 10.0 mi WNW 12.7 mph - N/A Rain , Thunderstorm Light Thunderstorms and Rain
1:55 AM 64.2 °F - 63.7 °F 98% 30.08 in 10.0 mi WNW 15.0 mph - 0.03 in Rain , Thunderstorm Light Thunderstorms and Rain
1:57 AM 64.4 °F - 64.4 °F 100% 30.07 in 9.0 mi NW 11.5 mph - N/A Rain , Thunderstorm Thunderstorms and Rain
2:01 AM 64.4 °F - 64.4 °F 100% 30.05 in 4.0 mi Calm Calm - N/A Rain , Thunderstorm Heavy Thunderstorms and Rain
2:02 AM 64.4 °F - 64.4 °F 100% 30.05 in 3.0 mi Calm Calm - N/A Rain , Thunderstorm Heavy Thunderstorms and Rain
2:03 AM 64.4 °F - 64.4 °F 100% 30.05 in 2.5 mi Calm Calm - N/A Rain , Thunderstorm Heavy Thunderstorms and Rain
2:04 AM 64.4 °F - 64.4 °F 100% 30.06 in 2.5 mi Calm Calm - N/A Rain , Thunderstorm Heavy Thunderstorms and Rain
2:07 AM 64.4 °F - 62.6 °F 94% 30.07 in 2.0 mi West 5.8 mph - N/A Rain , Thunderstorm Heavy Thunderstorms and Rain
2:08 AM 64.4 °F - 62.6 °F 94% 30.06 in 2.0 mi West 8.1 mph - N/A Rain , Thunderstorm Thunderstorms and Rain
2:10 AM 64.4 °F - 62.6 °F 94% 30.05 in 2.5 mi Variable 5.8 mph - N/A Rain , Thunderstorm Thunderstorms and Rain
2:11 AM 64.4 °F - 62.6 °F 94% 30.03 in 3.0 mi South 10.4 mph - N/A Rain , Thunderstorm Thunderstorms and Rain
2:14 AM 64.4 °F - 62.6 °F 94% 30.01 in 4.0 mi SSE 19.6 mph - N/A Rain , Thunderstorm Thunderstorms and Rain
2:18 AM 64.4 °F - 64.4 °F 100% 30.03 in 5.0 mi SSE 9.2 mph - N/A Rain , Thunderstorm Light Thunderstorms and Rain
2:19 AM 64.4 °F - 64.4 °F 100% 30.03 in 5.0 mi SSE 8.1 mph - N/A Rain , Thunderstorm Light Thunderstorms and Rain
2:20 AM 64.4 °F - 64.4 °F 100% 30.04 in 5.0 mi South 5.8 mph - N/A Rain , Thunderstorm Light Thunderstorms and Rain
2:42 AM 64.4 °F - 62.6 °F 94% 30.03 in 10.0 mi SSE 5.8 mph - N/A Rain , Thunderstorm Light Rain
2:45 AM 64.4 °F - 62.6 °F 94% 30.04 in 10.0 mi SSE 8.1 mph - N/A Rain Light Rain
2:50 AM 64.4 °F - 62.6 °F 94% 30.03 in 10.0 mi SSE 9.2 mph - N/A   Mostly Cloudy
2:55 AM 64.4 °F - 63.0 °F 95% 30.03 in 10.0 mi SSE 9.2 mph - 0.36 in   Mostly Cloudy
3:55 AM 64.9 °F - 63.9 °F 96% 30.04 in 10.0 mi SE 9.2 mph - N/A   Overcast
4:09 AM 66.2 °F - 64.4 °F 94% 30.04 in 10.0 mi SSE 10.4 mph - N/A   Overcast
4:39 AM 66.2 °F - 64.4 °F 94% 30.04 in 10.0 mi SE 11.5 mph - N/A   Overcast
4:42 AM 66.2 °F - 64.4 °F 94% 30.04 in 10.0 mi SE 10.4 mph - N/A   Overcast
4:47 AM 66.2 °F - 64.4 °F 94% 30.05 in 10.0 mi SE 9.2 mph - N/A   Overcast
4:50 AM 66.2 °F - 64.4 °F 94% 30.05 in 10.0 mi SSE 8.1 mph - N/A Rain Light Rain
4:53 AM 66.2 °F - 64.4 °F 94% 30.04 in 10.0 mi SE 9.2 mph - N/A Rain Light Rain
4:55 AM 65.8 °F - 64.6 °F 96% 30.04 in 10.0 mi SE 9.2 mph - 0.00 in Rain Light Rain
5:00 AM 66.2 °F - 64.4 °F 94% 30.04 in 10.0 mi SE 9.2 mph - N/A   Overcast
5:01 AM 66.2 °F - 64.4 °F 94% 30.04 in 10.0 mi SSE 10.4 mph - N/A   Overcast
5:07 AM 66.2 °F - 64.4 °F 94% 30.05 in 10.0 mi SSE 9.2 mph - N/A   Overcast
5:13 AM 66.2 °F - 64.4 °F 94% 30.05 in 10.0 mi SSE 6.9 mph - N/A   Overcast
5:48 AM 66.2 °F - 64.4 °F 94% 30.06 in 10.0 mi SE 8.1 mph - N/A   Mostly Cloudy
5:53 AM 66.2 °F - 64.4 °F 94% 30.06 in 10.0 mi SE 8.1 mph - N/A   Overcast
5:55 AM 65.7 °F - 64.9 °F 98% 30.06 in 10.0 mi SE 8.1 mph - 0.00 in   Overcast
5:58 AM 66.2 °F - 64.4 °F 94% 30.06 in 10.0 mi SE 8.1 mph - N/A   Overcast
6:02 AM 66.2 °F - 64.4 °F 94% 30.06 in 10.0 mi SE 6.9 mph - N/A   Overcast
6:08 AM 66.2 °F - 64.4 °F 94% 30.06 in 10.0 mi SE 8.1 mph - N/A   Overcast
6:09 AM 66.2 °F - 64.4 °F 94% 30.06 in 10.0 mi SE 8.1 mph - N/A   Overcast
6:10 AM 66.2 °F - 64.4 °F 94% 30.06 in 10.0 mi SE 6.9 mph - N/A   Overcast
6:11 AM 66.2 °F - 64.4 °F 94% 30.06 in 10.0 mi SE 6.9 mph - N/A   Overcast
6:16 AM 66.2 °F - 64.4 °F 94% 30.06 in 10.0 mi SE 5.8 mph - N/A   Overcast
6:55 AM 66.4 °F - 65.5 °F 97% 30.08 in 10.0 mi SE 8.1 mph - N/A   Mostly Cloudy
7:53 AM 68.0 °F - 66.2 °F 94% 30.09 in 10.0 mi SSE 9.2 mph - N/A   Mostly Cloudy
7:55 AM 68.0 °F - 66.0 °F 93% 30.09 in 10.0 mi SSE 10.4 mph - N/A   Mostly Cloudy
7:57 AM 68.0 °F - 66.2 °F 94% 30.09 in 10.0 mi SE 9.2 mph - N/A   Mostly Cloudy
7:59 AM 68.0 °F - 66.2 °F 94% 30.09 in 10.0 mi SSE 10.4 mph - N/A   Overcast
8:05 AM 68.0 °F - 66.2 °F 94% 30.10 in 10.0 mi SSE 6.9 mph - N/A   Overcast
8:07 AM 68.0 °F - 66.2 °F 94% 30.10 in 10.0 mi SSE 6.9 mph - N/A   Overcast
8:09 AM 68.0 °F - 66.2 °F 94% 30.10 in 10.0 mi SSE 6.9 mph - N/A   Overcast
8:11 AM 68.0 °F - 66.2 °F 94% 30.10 in 10.0 mi SSE 6.9 mph - N/A   Overcast
8:18 AM 68.0 °F - 66.2 °F 94% 30.10 in 8.0 mi SSE 6.9 mph - N/A Rain Light Rain
8:51 AM 68.0 °F - 66.2 °F 94% 30.09 in 10.0 mi SSE 9.2 mph - N/A   Overcast
8:55 AM 68.7 °F - 66.7 °F 93% 30.09 in 10.0 mi SSE 9.2 mph - 0.03 in   Overcast
9:55 AM 71.1 °F - 66.7 °F 86% 30.09 in 10.0 mi SSE 11.5 mph 19.6 mph N/A   Overcast
10:07 AM 71.6 °F - 66.2 °F 83% 30.09 in 10.0 mi SSE 12.7 mph - N/A Rain Light Rain
10:17 AM 71.6 °F - 66.2 °F 83% 30.09 in 10.0 mi SSE 15.0 mph - N/A   Overcast
10:54 AM 71.6 °F - 66.2 °F 83% 30.09 in 10.0 mi SSE 11.5 mph 19.6 mph N/A   Overcast
10:55 AM 72.5 °F - 66.7 °F 82% 30.09 in 10.0 mi SSE 11.5 mph 19.6 mph 0.00 in   Overcast
11:55 AM 74.5 °F - 67.3 °F 78% 30.08 in 10.0 mi SSE 12.7 mph - N/A   Overcast
11:59 AM 75.2 °F - 68.0 °F 78% 30.08 in 10.0 mi SSE 12.7 mph - N/A   Overcast
12:33 PM 77.0 °F - 68.0 °F 74% 30.07 in 10.0 mi SSE 13.8 mph - N/A   Overcast
12:34 PM 77.0 °F - 68.0 °F 74% 30.07 in 10.0 mi SSE 13.8 mph - N/A   Overcast
12:43 PM 77.0 °F - 68.0 °F 74% 30.07 in 10.0 mi SSE 12.7 mph 19.6 mph N/A   Overcast
12:51 PM 77.0 °F - 68.0 °F 74% 30.07 in 10.0 mi SE 12.7 mph 19.6 mph N/A   Overcast
12:54 PM 77.0 °F - 69.8 °F 78% 30.06 in 10.0 mi SE 12.7 mph - N/A   Overcast
12:55 PM 77.7 °F - 69.1 °F 75% 30.06 in 10.0 mi SE 15.0 mph - N/A   Overcast
12:56 PM 77.0 °F - 69.8 °F 78% 30.06 in 10.0 mi SE 16.1 mph - N/A   Overcast
1:21 PM 77.0 °F - 68.0 °F 74% 30.06 in 10.0 mi SE 13.8 mph - N/A   Overcast
1:26 PM 77.0 °F - 68.0 °F 74% 30.06 in 10.0 mi SSE 13.8 mph - N/A   Overcast
1:29 PM 77.0 °F - 69.8 °F 78% 30.06 in 10.0 mi SE 15.0 mph - N/A   Overcast
1:41 PM 77.0 °F - 68.0 °F 74% 30.06 in 10.0 mi SSE 13.8 mph - N/A   Overcast
1:43 PM 77.0 °F - 69.8 °F 78% 30.06 in 10.0 mi SE 15.0 mph - N/A   Overcast
1:51 PM 77.0 °F - 69.8 °F 78% 30.06 in 10.0 mi ESE 13.8 mph - N/A   Overcast
1:55 PM 77.0 °F - 69.1 °F 76% 30.06 in 10.0 mi SE 15.0 mph - N/A   Overcast
2:11 PM 77.0 °F - 68.0 °F 74% 30.05 in 10.0 mi SE 17.3 mph - N/A   Overcast
2:13 PM 77.0 °F - 68.0 °F 74% 30.05 in 10.0 mi SE 19.6 mph - N/A   Overcast
2:45 PM 78.8 °F - 69.8 °F 74% 30.04 in 10.0 mi SE 13.8 mph - N/A   Mostly Cloudy
2:51 PM 78.8 °F - 69.8 °F 74% 30.04 in 10.0 mi SE 15.0 mph - N/A   Mostly Cloudy
2:53 PM 78.8 °F - 69.8 °F 74% 30.04 in 10.0 mi ESE 18.4 mph - N/A   Mostly Cloudy
2:55 PM 78.3 °F - 69.4 °F 74% 30.04 in 10.0 mi ESE 17.3 mph - N/A   Mostly Cloudy
3:03 PM 77.0 °F - 69.8 °F 78% 30.04 in 10.0 mi SE 13.8 mph - N/A   Mostly Cloudy
3:11 PM 78.8 °F - 69.8 °F 74% 30.03 in 10.0 mi SE 16.1 mph - N/A   Mostly Cloudy
3:14 PM 78.8 °F - 69.8 °F 74% 30.03 in 10.0 mi SSE 13.8 mph - N/A   Mostly Cloudy
3:15 PM 78.8 °F - 69.8 °F 74% 30.03 in 10.0 mi SE 15.0 mph - N/A   Scattered Clouds
3:49 PM 80.6 °F 83.9 °F 69.8 °F 70% 30.01 in 10.0 mi ESE 16.1 mph - N/A   Mostly Cloudy
3:55 PM 78.8 °F - 69.4 °F 73% 30.01 in 10.0 mi SE 17.3 mph - N/A   Mostly Cloudy
4:06 PM 78.8 °F - 69.8 °F 74% 30.01 in 10.0 mi SE 13.8 mph - N/A   Scattered Clouds
4:09 PM 78.8 °F - 69.8 °F 74% 30.01 in 10.0 mi ESE 15.0 mph - N/A   Mostly Cloudy
4:42 PM 78.8 °F - 69.8 °F 74% 30.01 in 10.0 mi SE 13.8 mph - N/A   Scattered Clouds
4:55 PM 79.7 °F - 70.0 °F 72% 30.01 in 10.0 mi SE 17.3 mph - N/A   Partly Cloudy
5:55 PM 79.0 °F - 69.6 °F 73% 30.01 in 10.0 mi SE 13.8 mph - N/A   Clear
6:55 PM 77.0 °F - 69.1 °F 76% 30.03 in 10.0 mi SE 15.0 mph 21.9 mph N/A   Clear
7:55 PM 74.1 °F - 68.2 °F 82% 30.04 in 10.0 mi SE 12.7 mph - N/A   Partly Cloudy
8:55 PM 72.7 °F - 67.3 °F 83% 30.06 in 10.0 mi SSE 11.5 mph - N/A   Clear
9:55 PM 71.6 °F - 66.9 °F 85% 30.06 in 10.0 mi SE 11.5 mph - N/A   Clear
10:55 PM 70.2 °F - 66.2 °F 87% 30.06 in 10.0 mi SSE 12.7 mph - N/A   Clear
11:55 PM 69.8 °F - 65.5 °F 86% 30.05 in 10.0 mi SSE 10.4 mph - N/A   Clear